Regional Weather Roundup
Issued by NWS

Home | Current Version | Previous Version | Text Only | Print | Product List | Glossary Off
Versions: 1 2 3 4 5 6 7 8 9 10 11 12 13 14 15 16 17 18 19 20 21 22 23 24 25 26 27 28 29 30 31 32 33 34 35 36 37 38 39 40 41 42 43 44 45 46 47 48 49 50

000
ASUS43 KOAX 301702
RWRNE

WEATHER ROUNDUP FOR NEBRASKA
NATIONAL WEATHER SERVICE OMAHA NE
1200 PM CDT FRI SEP 30 2016

NOTES: SATELLITE DATA IS BEING USED TO AUGMENT CLOUD COVER ABOVE
       12000 FEET.
       "FAIR" INDICATES FEW OR NO CLOUDS BELOW 12,000 FEET WITH NO
       SIGNIFICANT WEATHER AND/OR OBSTRUCTIONS TO VISIBILITY.

  * THESE STATIONS DO NOT REPORT WEATHER SUCH AS RAIN...SNOW OR FOG.

NEZ001>004-019>022-054>056-301800-
NEBRASKA PANHANDLE

CITY           SKY/WX    TMP DP  RH WIND       PRES   REMARKS
SCOTTSBLUFF    MOSUNNY   61  44  53 VRB6      30.20F
ALLIANCE       MOSUNNY   65  44  46 SE12      30.18F
CHADRON        MOSUNNY   67  45  45 S12       30.12F
KIMBALL        CLOUDY    71  50  46 N8        30.22F
SIDNEY         CLOUDY    59  43  55 S7        30.22F
$$

NEZ057>060-069>072-079>082-301800-
SOUTHWEST NEBRASKA

CITY           SKY/WX    TMP DP  RH WIND       PRES   REMARKS
NORTH PLATTE   CLOUDY    64  46  52 S12       30.24F
IMPERIAL       MOSUNNY   64  45  49 SE14      30.22S
LEXINGTON      CLOUDY    65  47  52 SE12      30.26F
MCCOOK         MOSUNNY   67  47  48 SE17      30.23F
OGALLALA       PTSUNNY   63  46  52 S8        30.22F
$$

NEZ005>010-023>029-035>040-094-301800-
NORTH CENTRAL NEBRASKA

CITY           SKY/WX    TMP DP  RH WIND       PRES   REMARKS
VALENTINE      PTSUNNY   66  45  46 S18       30.21F
AINSWORTH      MOSUNNY   61  48  62 SE12      30.24S
BROKEN BOW     CLOUDY    63  47  55 S13       30.26F
O`NEILL        SUNNY     67  45  46 SE14      30.26F
ORD            SUNNY     66  45  46 SE10      30.25F
THEDFORD       PTSUNNY   65  48  52 S14G21    30.24F
$$

NEZ041-046>049-061>064-073>077-083>087-301800-
SOUTH CENTRAL NEBRASKA

CITY           SKY/WX    TMP DP  RH WIND       PRES   REMARKS
GRAND ISLAND   SUNNY     66  46  48 S5        30.27F
AURORA         SUNNY     65  46  49 SE6       30.27F
HASTINGS       SUNNY     65  46  50 S9        30.27F
HEBRON         SUNNY     66  46  48 CALM      30.27F
HOLDREGE       CLOUDY    64  45  50 S10       30.27F
KEARNEY *      MOSUNNY   64  46  52 S10       30.26F
YORK           SUNNY     66  46  48 SE5       30.27F
$$

NEZ011>018-030>034-042>045-301800-
NORTHEAST NEBRASKA

CITY           SKY/WX    TMP DP  RH WIND       PRES   REMARKS
NORFOLK        SUNNY     67  47  48 E6        30.27F
ALBION         SUNNY     66  45  47 SE10      30.27F
BLAIR          SUNNY     66  50  56 N6        30.28F
FREMONT        SUNNY     67  50  53 E6        30.28F
TEKAMAH        SUNNY     68  47  46 E6        30.29F
WAYNE          SUNNY     68  52  56 SE5       30.29F
$$

NEZ050>053-065>068-078-088>093-301800-
SOUTHEAST NEBRASKA

CITY           SKY/WX    TMP DP  RH WIND       PRES   REMARKS
LINCOLN        SUNNY     68  51  54 VRB3      30.28F
OMAHA EPPLEY   MOSUNNY   69  51  52 CALM      30.28F
BEATRICE       SUNNY     69  52  54 E3        30.26F HAZE
FALLS CITY     SUNNY     69  49  48 NE9       30.25F
NEBRASKA CITY  SUNNY     68  42  39 E8        30.27F
PLATTSMOUTH    SUNNY     68  45  43 N6        30.28F
$$

NEZ044-045-051>053-067-301800-
OMAHA AREA

CITY           SKY/WX    TMP DP  RH WIND       PRES   REMARKS
OMAHA EPPLEY   MOSUNNY   69  51  52 CALM      30.28F
BLAIR          SUNNY     66  50  56 N6        30.28F
FREMONT        SUNNY     67  50  53 E6        30.28F
MILLARD        SUNNY     68  48  49 NE6       30.27F
OFFUTT AFB     SUNNY     69  51  52 NE7       30.27F
PLATTSMOUTH    SUNNY     68  45  43 N6        30.28F
WAHOO          FAIR      68  49  50 E5        30.27F
$$



USA.gov is the U.S. government's official web portal to all federal, state and local government web resources and services.